QPF
0.03 0.05 0.12 0.11 0.08 0.06 0.06 0.05 0.06 0.07 0.06 0.05 0.04 0.05 0.07 0.08 0.09 0.09 0.08 0.07 0.07 0.05 0.06 0.09 0.08 0.08 0.09 0.11 0.12 0.11 0.13 0.16 0.13 0.09 0.08 0.08 0.08 0.08 0.08 0.09 0.09 0.06 0.03
0.02 0.05 0.11 0.09 0.07 0.07 0.07 0.07 0.09 0.10 0.09 0.07 0.06 0.06 0.08 0.08 0.10 0.11 0.09 0.07 0.08 0.06 0.05 0.09 0.07 0.05 0.08 0.11 0.13 0.12 0.11 0.13 0.14 0.12 0.10 0.08 0.07 0.07 0.07 0.08 0.08 0.06 0.04
0.02 0.04 0.08 0.08 0.05 0.06 0.06 0.08 0.08 0.08 0.08 0.09 0.08 0.08 0.07 0.08 0.10 0.13 0.09 0.07 0.08 0.07 0.06 0.06 0.06 0.05 0.07 0.10 0.12 0.11 0.10 0.12 0.15 0.14 0.12 0.07 0.06 0.07 0.06 0.08 0.09 0.07 0.05
0.03 0.03 0.06 0.06 0.06 0.07 0.07 0.08 0.09 0.07 0.06 0.07 0.09 0.09 0.11 0.10 0.11 0.11 0.08 0.08 0.09 0.09 0.07 0.05 0.05 0.05 0.07 0.10 0.12 0.13 0.14 0.14 0.14 0.12 0.10 0.04 0.03 0.05 0.06 0.08 0.08 0.08 0.06
0.02 0.01 0.04 0.06 0.06 0.06 0.07 0.10 0.11 0.08 0.04 0.05 0.06 0.07 0.09 0.08 0.09 0.09 0.09 0.08 0.12 0.11 0.09 0.07 0.06 0.06 0.09 0.12 0.14 0.17 0.15 0.15 0.18 0.16 0.07 0.02 0.01 0.03 0.05 0.07 0.07 0.06 0.06
0.01 0.02 0.05 0.06 0.04 0.04 0.04 0.05 0.07 0.05 0.06 0.06 0.06 0.06 0.06 0.07 0.09 0.10 0.10 0.10 0.13 0.15 0.12 0.10 0.09 0.08 0.10 0.12 0.16 0.19 0.18 0.16 0.18 0.13 0.05 0.02 0.02 0.04 0.06 0.08 0.10 0.08 0.05
0.01 0.03 0.07 0.08 0.06 0.06 0.05 0.04 0.04 0.06 0.07 0.06 0.06 0.05 0.05 0.06 0.07 0.09 0.09 0.09 0.10 0.12 0.12 0.12 0.11 0.10 0.09 0.13 0.18 0.17 0.18 0.19 0.14 0.06 0.03 0.02 0.03 0.05 0.07 0.09 0.10 0.09 0.07
0.00 0.03 0.06 0.06 0.07 0.08 0.06 0.04 0.05 0.07 0.08 0.08 0.07 0.05 0.05 0.07 0.08 0.08 0.08 0.08 0.09 0.10 0.10 0.12 0.10 0.09 0.10 0.14 0.16 0.14 0.15 0.15 0.09 0.07 0.03 0.01 0.03 0.06 0.08 0.09 0.08 0.07 0.06
0.01 0.02 0.03 0.03 0.06 0.06 0.06 0.07 0.09 0.11 0.11 0.08 0.06 0.05 0.06 0.07 0.06 0.05 0.06 0.06 0.08 0.09 0.09 0.10 0.09 0.11 0.11 0.14 0.14 0.10 0.13 0.15 0.06 0.03 0.02 0.01 0.04 0.07 0.07 0.06 0.07 0.08 0.07
0.02 0.02 0.02 0.02 0.04 0.05 0.08 0.13 0.19 0.19 0.11 0.07 0.07 0.07 0.06 0.06 0.06 0.05 0.07 0.06 0.08 0.10 0.10 0.10 0.10 0.11 0.12 0.10 0.08 0.10 0.13 0.12 0.04 0.02 0.01 0.02 0.05 0.06 0.05 0.05 0.06 0.08 0.07
0.03 0.03 0.03 0.02 0.02 0.04 0.07 0.11 0.18 0.19 0.14 0.09 0.06 0.06 0.05 0.03 0.04 0.03 0.05 0.08 0.10 0.12 0.12 0.13 0.11 0.12 0.12 0.09 0.08 0.10 0.12 0.07 0.03 0.03 0.02 0.04 0.08 0.06 0.05 0.05 0.05 0.05 0.06
0.04 0.05 0.04 0.02 0.02 0.03 0.06 0.09 0.11 0.12 0.08 0.05 0.04 0.04 0.02 0.03 0.02 0.03 0.06 0.10 0.12 0.16 0.15 0.13 0.10 0.15 0.11 0.06 0.08 0.12 0.08 0.04 0.03 0.02 0.03 0.05 0.08 0.07 0.06 0.05 0.05 0.06 0.06
0.02 0.03 0.04 0.02 0.02 0.02 0.05 0.08 0.08 0.05 0.03 0.03 0.03 0.02 0.03 0.04 0.04 0.04 0.05 0.06 0.10 0.13 0.11 0.10 0.10 0.10 0.06 0.03 0.04 0.07 0.06 0.03 0.02 0.02 0.03 0.06 0.07 0.06 0.06 0.05 0.05 0.06 0.08
0.02 0.02 0.02 0.02 0.02 0.03 0.04 0.05 0.04 0.03 0.03 0.02 0.02 0.02 0.04 0.06 0.06 0.07 0.05 0.04 0.07 0.08 0.08 0.09 0.07 0.06 0.06 0.04 0.03 0.04 0.04 0.03 0.02 0.02 0.04 0.09 0.09 0.08 0.07 0.06 0.06 0.06 0.07
0.02 0.02 0.03 0.02 0.03 0.04 0.05 0.04 0.03 0.03 0.02 0.02 0.02 0.02 0.04 0.07 0.07 0.06 0.06 0.06 0.07 0.06 0.07 0.08 0.08 0.07 0.05 0.04 0.04 0.04 0.04 0.04 0.03 0.03 0.05 0.11 0.10 0.09 0.08 0.06 0.07 0.06 0.06
0.01 0.02 0.02 0.03 0.03 0.05 0.05 0.04 0.04 0.04 0.03 0.02 0.02 0.02 0.04 0.05 0.05 0.03 0.04 0.05 0.05 0.04 0.04 0.07 0.11 0.13 0.13 0.11 0.09 0.07 0.05 0.05 0.05 0.05 0.07 0.10 0.12 0.09 0.07 0.07 0.06 0.04 0.05
0.01 0.01 0.02 0.04 0.03 0.03 0.03 0.03 0.04 0.05 0.05 0.03 0.02 0.03 0.03 0.02 0.02 0.02 0.03 0.04 0.03 0.03 0.03 0.06 0.08 0.11 0.16 0.19 0.21 0.19 0.14 0.11 0.10 0.09 0.08 0.08 0.10 0.11 0.10 0.08 0.06 0.05 0.05
0.00 0.00 0.01 0.02 0.03 0.02 0.02 0.02 0.03 0.04 0.06 0.03 0.02 0.03 0.05 0.04 0.03 0.03 0.03 0.03 0.03 0.02 0.03 0.04 0.03 0.07 0.12 0.14 0.17 0.22 0.25 0.25 0.25 0.21 0.15 0.11 0.11 0.11 0.10 0.11 0.10 0.09 0.08
0.00 0.00 0.01 0.02 0.03 0.03 0.03 0.03 0.03 0.04 0.04 0.03 0.02 0.04 0.04 0.05 0.04 0.04 0.04 0.03 0.03 0.01 0.02 0.03 0.02 0.04 0.07 0.10 0.12 0.15 0.19 0.24 0.29 0.25 0.22 0.15 0.13 0.12 0.10 0.09 0.10 0.11 0.12
0.00 0.00 0.00 0.01 0.04 0.04 0.03 0.04 0.05 0.07 0.09 0.08 0.06 0.03 0.03 0.04 0.04 0.03 0.04 0.04 0.03 0.03 0.03 0.03 0.03 0.04 0.05 0.08 0.10 0.10 0.15 0.22 0.20 0.20 0.19 0.15 0.13 0.11 0.09 0.08 0.08 0.11 0.17
0.00 0.00 0.00 0.01 0.06 0.07 0.05 0.04 0.03 0.05 0.07 0.05 0.04 0.03 0.02 0.03 0.03 0.04 0.05 0.05 0.04 0.03 0.04 0.04 0.03 0.04 0.04 0.06 0.08 0.07 0.09 0.11 0.13 0.15 0.14 0.13 0.14 0.14 0.14 0.11 0.09 0.09 0.14
0.00 0.00 0.01 0.01 0.07 0.08 0.06 0.05 0.04 0.04 0.04 0.03 0.03 0.03 0.03 0.04 0.04 0.04 0.07 0.09 0.06 0.05 0.05 0.05 0.04 0.04 0.04 0.05 0.07 0.08 0.06 0.08 0.07 0.08 0.08 0.09 0.11 0.13 0.12 0.11 0.11 0.10 0.10
0.00 0.00 0.01 0.03 0.06 0.05 0.06 0.06 0.08 0.06 0.06 0.05 0.04 0.04 0.05 0.06 0.07 0.07 0.08 0.12 0.11 0.08 0.08 0.08 0.07 0.07 0.07 0.08 0.09 0.09 0.08 0.06 0.06 0.07 0.07 0.07 0.07 0.09 0.10 0.10 0.10 0.10 0.10
0.00 0.00 0.00 0.02 0.04 0.03 0.05 0.07 0.11 0.06 0.05 0.06 0.05 0.07 0.09 0.12 0.14 0.13 0.11 0.14 0.22 0.20 0.14 0.09 0.08 0.08 0.09 0.10 0.09 0.08 0.07 0.05 0.05 0.05 0.06 0.06 0.06 0.07 0.08 0.09 0.09 0.10 0.10
0.00 0.00 0.00 0.01 0.01 0.02 0.03 0.05 0.07 0.06 0.04 0.05 0.04 0.07 0.09 0.11 0.12 0.13 0.12 0.11 0.13 0.13 0.10 0.06 0.07 0.06 0.06 0.07 0.06 0.06 0.07 0.05 0.05 0.04 0.04 0.04 0.06 0.09 0.10 0.11 0.11 0.10 0.10
0.00 0.01 0.01 0.01 0.00 0.00 0.01 0.03 0.04 0.04 0.03 0.02 0.02 0.06 0.07 0.05 0.05 0.07 0.06 0.04 0.05 0.06 0.06 0.06 0.07 0.06 0.05 0.05 0.05 0.05 0.05 0.05 0.05 0.05 0.05 0.04 0.05 0.06 0.08 0.09 0.09 0.10 0.10
MSLP
1003.44 1002.58 1002.09 1001.97 1002.15 1002.53 1002.97 1003.38 1003.67 1003.84 1003.91 1003.95 1004.03 1004.22 1004.54 1004.98 1005.51 1006.05 1006.56 1006.98 1007.30 1007.54 1007.74 1007.96 1008.26 1008.67 1009.22 1009.89 1010.65 1011.46 1012.28 1013.07 1013.81 1014.48 1015.07 1015.60 1016.06 1016.45 1016.77 1017.00 1017.16 1017.25 1017.30
1003.27 1002.54 1002.13 1002.05 1002.23 1002.56 1002.95 1003.29 1003.53 1003.67 1003.72 1003.77 1003.86 1004.05 1004.36 1004.79 1005.29 1005.82 1006.32 1006.75 1007.10 1007.38 1007.63 1007.90 1008.22 1008.64 1009.18 1009.84 1010.60 1011.44 1012.32 1013.19 1014.04 1014.81 1015.50 1016.08 1016.55 1016.91 1017.17 1017.33 1017.43 1017.47 1017.51
1003.21 1002.60 1002.26 1002.19 1002.32 1002.57 1002.87 1003.13 1003.33 1003.45 1003.54 1003.63 1003.76 1003.98 1004.29 1004.68 1005.13 1005.60 1006.05 1006.46 1006.83 1007.15 1007.46 1007.78 1008.15 1008.60 1009.15 1009.80 1010.56 1011.41 1012.33 1013.27 1014.20 1015.07 1015.83 1016.46 1016.95 1017.28 1017.48 1017.58 1017.62 1017.64 1017.67
1003.21 1002.69 1002.36 1002.22 1002.22 1002.32 1002.48 1002.64 1002.80 1002.96 1003.13 1003.34 1003.59 1003.89 1004.24 1004.62 1005.02 1005.41 1005.80 1006.18 1006.55 1006.91 1007.29 1007.69 1008.13 1008.63 1009.20 1009.85 1010.61 1011.45 1012.38 1013.35 1014.34 1015.26 1016.08 1016.75 1017.23 1017.55 1017.71 1017.76 1017.76 1017.76 1017.81
1003.21 1002.69 1002.27 1001.94 1001.71 1001.57 1001.51 1001.55 1001.69 1001.93 1002.27 1002.68 1003.15 1003.64 1004.11 1004.54 1004.93 1005.28 1005.62 1005.96 1006.32 1006.73 1007.18 1007.68 1008.21 1008.78 1009.38 1010.05 1010.78 1011.61 1012.52 1013.49 1014.48 1015.43 1016.27 1016.95 1017.44 1017.74 1017.87 1017.89 1017.87 1017.87 1017.94
1003.16 1002.52 1001.86 1001.21 1000.62 1000.13 999.80 999.68 999.81 1000.18 1000.77 1001.50 1002.31 1003.10 1003.81 1004.39 1004.84 1005.20 1005.51 1005.83 1006.20 1006.66 1007.19 1007.79 1008.42 1009.07 1009.73 1010.41 1011.13 1011.91 1012.77 1013.70 1014.67 1015.60 1016.44 1017.12 1017.59 1017.87 1017.99 1017.99 1017.97 1017.99 1018.09
1003.03 1002.13 1001.09 999.99 998.91 997.98 997.31 997.02 997.14 997.69 998.60 999.77 1001.03 1002.24 1003.29 1004.13 1004.73 1005.16 1005.48 1005.81 1006.20 1006.71 1007.33 1008.03 1008.77 1009.51 1010.23 1010.92 1011.62 1012.35 1013.15 1014.01 1014.91 1015.80 1016.60 1017.26 1017.72 1017.99 1018.10 1018.11 1018.10 1018.14 1018.28
1002.82 1001.55 1000.04 998.38 996.74 995.31 994.28 993.78 993.92 994.67 995.97 997.62 999.40 1001.13 1002.61 1003.77 1004.60 1005.15 1005.54 1005.89 1006.32 1006.88 1007.57 1008.38 1009.22 1010.06 1010.83 1011.55 1012.22 1012.90 1013.62 1014.39 1015.21 1016.03 1016.78 1017.40 1017.84 1018.11 1018.23 1018.25 1018.26 1018.33 1018.50
1002.60 1000.91 998.88 996.65 994.45 992.52 991.12 990.45 990.60 991.57 993.25 995.39 997.72 999.96 1001.90 1003.42 1004.50 1005.21 1005.68 1006.08 1006.54 1007.15 1007.91 1008.80 1009.74 1010.66 1011.49 1012.23 1012.89 1013.51 1014.15 1014.83 1015.55 1016.28 1016.96 1017.54 1017.97 1018.24 1018.37 1018.42 1018.46 1018.55 1018.74
1002.45 1000.37 997.88 995.16 992.47 990.13 988.43 987.60 987.78 988.94 990.95 993.52 996.32 999.02 1001.36 1003.20 1004.51 1005.37 1005.92 1006.37 1006.86 1007.50 1008.32 1009.27 1010.29 1011.28 1012.17 1012.93 1013.57 1014.15 1014.70 1015.29 1015.90 1016.54 1017.16 1017.69 1018.10 1018.38 1018.53 1018.61 1018.67 1018.78 1018.98
1002.46 1000.12 997.32 994.26 991.24 988.62 986.72 985.81 986.01 987.32 989.57 992.44 995.56 998.57 1001.19 1003.26 1004.72 1005.68 1006.29 1006.76 1007.27 1007.94 1008.79 1009.79 1010.87 1011.91 1012.84 1013.62 1014.25 1014.78 1015.26 1015.75 1016.27 1016.82 1017.36 1017.85 1018.24 1018.52 1018.69 1018.80 1018.88 1019.01 1019.21
1002.71 1000.28 997.37 994.20 991.07 988.36 986.40 985.47 985.70 987.08 989.43 992.42 995.67 998.81 1001.53 1003.67 1005.19 1006.18 1006.80 1007.28 1007.80 1008.47 1009.34 1010.38 1011.49 1012.56 1013.52 1014.30 1014.91 1015.40 1015.82 1016.22 1016.65 1017.11 1017.58 1018.01 1018.38 1018.66 1018.85 1018.98 1019.09 1019.22 1019.41
1003.23 1000.91 998.13 995.08 992.08 989.47 987.60 986.72 986.98 988.34 990.64 993.56 996.72 999.76 1002.40 1004.46 1005.92 1006.87 1007.46 1007.92 1008.44 1009.12 1010.00 1011.04 1012.17 1013.25 1014.21 1014.99 1015.58 1016.02 1016.37 1016.70 1017.04 1017.42 1017.81 1018.19 1018.53 1018.80 1019.00 1019.15 1019.28 1019.42 1019.60
1003.98 1001.96 999.50 996.80 994.13 991.81 990.15 989.39 989.66 990.93 993.05 995.71 998.58 1001.34 1003.71 1005.55 1006.85 1007.69 1008.23 1008.67 1009.19 1009.87 1010.76 1011.81 1012.92 1014.00 1014.94 1015.69 1016.25 1016.64 1016.94 1017.19 1017.45 1017.74 1018.06 1018.39 1018.69 1018.95 1019.15 1019.32 1019.46 1019.60 1019.76
1004.90 1003.28 1001.30 999.10 996.91 995.01 993.65 993.06 993.33 994.44 996.26 998.53 1000.96 1003.28 1005.26 1006.79 1007.87 1008.58 1009.06 1009.49 1010.02 1010.72 1011.62 1012.66 1013.76 1014.80 1015.70 1016.40 1016.91 1017.26 1017.50 1017.68 1017.87 1018.09 1018.34 1018.60 1018.86 1019.10 1019.29 1019.46 1019.61 1019.76 1019.92
1005.87 1004.71 1003.26 1001.62 999.98 998.55 997.55 997.14 997.40 998.31 999.77 1001.58 1003.49 1005.29 1006.83 1008.01 1008.85 1009.43 1009.88 1010.33 1010.90 1011.64 1012.55 1013.57 1014.63 1015.62 1016.45 1017.10 1017.56 1017.85 1018.04 1018.17 1018.29 1018.44 1018.62 1018.83 1019.03 1019.23 1019.42 1019.58 1019.73 1019.89 1020.03
1006.81 1006.05 1005.09 1003.99 1002.89 1001.93 1001.28 1001.04 1001.29 1002.00 1003.09 1004.42 1005.80 1007.11 1008.21 1009.07 1009.72 1010.21 1010.65 1011.15 1011.78 1012.56 1013.49 1014.49 1015.50 1016.41 1017.17 1017.75 1018.14 1018.39 1018.53 1018.62 1018.69 1018.78 1018.90 1019.04 1019.19 1019.34 1019.49 1019.64 1019.79 1019.94 1020.09
1007.66 1007.21 1006.63 1005.98 1005.32 1004.77 1004.42 1004.34 1004.57 1005.10 1005.87 1006.77 1007.71 1008.57 1009.32 1009.93 1010.43 1010.88 1011.36 1011.93 1012.64 1013.47 1014.40 1015.37 1016.31 1017.13 1017.80 1018.30 1018.64 1018.84 1018.95 1019.00 1019.04 1019.08 1019.14 1019.21 1019.30 1019.39 1019.50 1019.62 1019.75 1019.89 1020.04
1008.43 1008.14 1007.81 1007.46 1007.14 1006.89 1006.78 1006.83 1007.06 1007.46 1007.98 1008.56 1009.14 1009.68 1010.17 1010.61 1011.04 1011.50 1012.04 1012.70 1013.47 1014.34 1015.26 1016.17 1017.02 1017.74 1018.32 1018.74 1019.02 1019.19 1019.28 1019.31 1019.32 1019.33 1019.33 1019.33 1019.34 1019.37 1019.42 1019.49 1019.59 1019.71 1019.84
1009.13 1008.89 1008.68 1008.50 1008.37 1008.33 1008.39 1008.55 1008.80 1009.12 1009.48 1009.85 1010.20 1010.54 1010.87 1011.23 1011.64 1012.13 1012.75 1013.47 1014.29 1015.16 1016.04 1016.88 1017.62 1018.23 1018.71 1019.06 1019.29 1019.44 1019.51 1019.54 1019.54 1019.51 1019.45 1019.39 1019.32 1019.26 1019.23 1019.24 1019.30 1019.39 1019.50
1009.83 1009.56 1009.34 1009.22 1009.19 1009.27 1009.44 1009.68 1009.97 1010.28 1010.57 1010.83 1011.07 1011.31 1011.58 1011.90 1012.33 1012.86 1013.52 1014.28 1015.10 1015.94 1016.74 1017.47 1018.09 1018.60 1018.98 1019.26 1019.46 1019.59 1019.67 1019.71 1019.69 1019.63 1019.53 1019.39 1019.23 1019.08 1018.97 1018.90 1018.89 1018.94 1019.03
1010.58 1010.22 1009.96 1009.82 1009.82 1009.95 1010.20 1010.51 1010.86 1011.19 1011.48 1011.72 1011.94 1012.15 1012.40 1012.72 1013.16 1013.72 1014.38 1015.13 1015.90 1016.66 1017.36 1017.96 1018.46 1018.85 1019.14 1019.37 1019.54 1019.67 1019.77 1019.81 1019.80 1019.71 1019.56 1019.35 1019.11 1018.87 1018.66 1018.50 1018.43 1018.42 1018.47
1011.39 1010.96 1010.64 1010.46 1010.45 1010.61 1010.90 1011.27 1011.68 1012.07 1012.40 1012.67 1012.90 1013.12 1013.38 1013.71 1014.13 1014.66 1015.29 1015.96 1016.65 1017.29 1017.86 1018.33 1018.70 1018.99 1019.21 1019.40 1019.56 1019.70 1019.80 1019.86 1019.85 1019.75 1019.56 1019.30 1018.98 1018.66 1018.36 1018.12 1017.97 1017.90 1017.91
1012.24 1011.79 1011.42 1011.22 1011.20 1011.36 1011.68 1012.11 1012.57 1013.01 1013.40 1013.72 1013.97 1014.21 1014.46 1014.76 1015.15 1015.61 1016.15 1016.72 1017.28 1017.79 1018.22 1018.56 1018.83 1019.03 1019.19 1019.35 1019.51 1019.65 1019.78 1019.86 1019.86 1019.75 1019.54 1019.24 1018.88 1018.49 1018.12 1017.81 1017.59 1017.46 1017.42
1013.07 1012.65 1012.29 1012.08 1012.06 1012.23 1012.57 1013.02 1013.52 1014.00 1014.43 1014.77 1015.04 1015.27 1015.49 1015.75 1016.06 1016.44 1016.87 1017.31 1017.74 1018.11 1018.42 1018.66 1018.83 1018.97 1019.09 1019.23 1019.38 1019.54 1019.69 1019.78 1019.80 1019.71 1019.50 1019.19 1018.81 1018.39 1017.98 1017.63 1017.35 1017.16 1017.06
1013.82 1013.47 1013.16 1012.97 1012.95 1013.12 1013.46 1013.92 1014.43 1014.92 1015.35 1015.69 1015.95 1016.15 1016.33 1016.52 1016.75 1017.03 1017.34 1017.67 1017.98 1018.24 1018.45 1018.61 1018.72 1018.81 1018.91 1019.03 1019.18 1019.35 1019.50 1019.62 1019.66 1019.59 1019.41 1019.13 1018.77 1018.36 1017.95 1017.57 1017.25 1017.02 1016.86
Thickness
5783 5786 5787 5787 5788 5788 5788 5788 5788 5788 5788 5786 5785 5785 5783 5782 5782 5781 5780 5779 5778 5777 5776 5775 5773 5772 5771 5769 5768 5766 5765 5763 5762 5761 5760 5758 5757 5756 5754 5754 5753 5752 5751
5786 5787 5787 5787 5787 5787 5787 5787 5787 5787 5786 5786 5785 5784 5783 5782 5781 5780 5780 5779 5778 5777 5776 5774 5773 5772 5770 5769 5767 5766 5764 5763 5761 5760 5758 5757 5756 5755 5754 5753 5752 5752 5751
5786 5787 5786 5786 5786 5786 5786 5785 5785 5785 5785 5784 5784 5783 5782 5781 5780 5780 5779 5778 5778 5777 5775 5774 5773 5772 5770 5769 5767 5765 5763 5762 5760 5759 5757 5756 5755 5754 5753 5752 5751 5750 5750
5786 5786 5785 5785 5785 5784 5784 5784 5784 5783 5783 5783 5782 5782 5781 5781 5780 5779 5779 5778 5777 5776 5775 5774 5773 5771 5770 5768 5767 5765 5763 5761 5759 5758 5757 5756 5755 5754 5753 5752 5751 5750 5749
5785 5785 5784 5784 5783 5783 5783 5783 5783 5782 5782 5782 5782 5781 5781 5780 5779 5778 5777 5777 5776 5775 5774 5773 5772 5771 5770 5768 5766 5765 5763 5761 5759 5758 5757 5756 5755 5754 5753 5752 5750 5749 5748
5783 5784 5784 5783 5782 5782 5782 5782 5781 5781 5781 5781 5780 5780 5780 5779 5779 5778 5777 5776 5775 5775 5774 5773 5772 5771 5770 5768 5767 5765 5763 5761 5759 5758 5756 5756 5755 5753 5752 5751 5750 5749 5748
5782 5783 5783 5782 5781 5781 5781 5781 5780 5780 5780 5779 5779 5779 5779 5778 5778 5777 5777 5776 5775 5774 5773 5772 5771 5770 5769 5768 5766 5765 5763 5762 5760 5757 5756 5755 5754 5753 5752 5750 5749 5748 5747
5782 5782 5782 5781 5781 5780 5780 5780 5780 5779 5779 5779 5778 5778 5777 5777 5777 5777 5776 5775 5775 5774 5773 5772 5771 5770 5769 5767 5766 5765 5763 5762 5759 5757 5755 5754 5753 5752 5751 5750 5749 5748 5747
5782 5781 5781 5780 5780 5780 5780 5780 5779 5778 5778 5778 5777 5777 5777 5776 5776 5775 5775 5774 5774 5773 5772 5771 5771 5770 5769 5767 5766 5765 5763 5761 5759 5757 5755 5754 5753 5751 5750 5750 5749 5748 5746
5781 5781 5780 5780 5780 5780 5780 5780 5779 5778 5778 5777 5776 5776 5775 5775 5775 5774 5774 5773 5773 5772 5771 5771 5770 5769 5768 5767 5766 5765 5763 5761 5759 5757 5755 5754 5753 5751 5750 5749 5748 5747 5745
5780 5780 5780 5780 5780 5780 5780 5780 5779 5778 5777 5776 5775 5775 5774 5774 5773 5773 5773 5773 5772 5772 5771 5770 5770 5769 5768 5767 5766 5765 5763 5760 5758 5756 5755 5754 5753 5752 5750 5749 5748 5747 5746
5777 5779 5780 5780 5780 5779 5779 5780 5779 5777 5776 5775 5774 5774 5773 5773 5773 5772 5772 5772 5772 5772 5771 5770 5769 5768 5767 5766 5766 5764 5762 5760 5758 5756 5755 5754 5753 5752 5751 5749 5748 5747 5746
5778 5780 5781 5780 5780 5779 5778 5777 5777 5776 5775 5775 5774 5774 5773 5773 5772 5772 5772 5772 5771 5771 5771 5770 5769 5768 5767 5766 5764 5763 5761 5759 5758 5756 5755 5754 5753 5752 5751 5749 5748 5747 5746
5779 5780 5781 5781 5780 5779 5778 5777 5777 5776 5775 5774 5774 5774 5773 5772 5772 5771 5771 5771 5771 5770 5769 5768 5767 5767 5766 5765 5763 5762 5760 5759 5757 5756 5755 5754 5753 5752 5750 5749 5748 5747 5745
5780 5781 5781 5782 5781 5780 5779 5778 5777 5776 5775 5774 5774 5773 5773 5772 5771 5771 5771 5770 5770 5769 5769 5767 5767 5766 5765 5763 5762 5761 5760 5758 5757 5756 5755 5754 5753 5752 5750 5749 5748 5747 5745
5781 5782 5783 5782 5782 5780 5779 5778 5776 5775 5775 5774 5773 5773 5773 5772 5772 5771 5770 5769 5769 5768 5768 5767 5766 5764 5763 5762 5760 5759 5758 5757 5756 5756 5755 5754 5753 5751 5750 5749 5747 5746 5745
5783 5784 5783 5784 5782 5781 5779 5778 5776 5775 5774 5773 5773 5773 5773 5772 5771 5770 5769 5768 5767 5767 5766 5765 5763 5762 5761 5760 5758 5758 5757 5756 5756 5755 5754 5753 5752 5751 5750 5749 5747 5746 5745
5785 5785 5785 5786 5783 5781 5780 5778 5777 5776 5774 5773 5773 5773 5772 5772 5771 5769 5767 5766 5765 5765 5764 5762 5761 5759 5758 5757 5756 5755 5755 5755 5754 5754 5753 5752 5751 5750 5749 5748 5747 5746 5745
5788 5786 5785 5785 5783 5782 5780 5779 5777 5776 5775 5773 5773 5772 5772 5771 5770 5768 5766 5764 5763 5762 5762 5761 5759 5758 5756 5754 5754 5753 5753 5754 5753 5753 5753 5752 5751 5749 5748 5747 5746 5745 5744
5789 5788 5786 5785 5783 5782 5781 5779 5777 5776 5775 5774 5773 5772 5772 5771 5770 5768 5765 5764 5762 5761 5759 5758 5757 5755 5754 5753 5752 5751 5751 5753 5753 5752 5752 5751 5750 5749 5748 5747 5745 5745 5744
5790 5788 5786 5784 5783 5782 5779 5777 5775 5773 5773 5773 5773 5772 5771 5770 5769 5767 5765 5763 5761 5759 5758 5757 5754 5752 5751 5750 5747 5746 5748 5751 5751 5751 5750 5750 5749 5748 5747 5747 5745 5744 5744
5790 5789 5787 5786 5784 5783 5781 5780 5778 5775 5773 5773 5773 5772 5771 5770 5768 5767 5764 5762 5760 5758 5756 5754 5753 5750 5749 5748 5744 5740 5739 5742 5746 5749 5749 5748 5748 5747 5746 5746 5745 5743 5742
5792 5791 5790 5788 5786 5785 5783 5781 5778 5775 5773 5771 5770 5770 5770 5769 5768 5766 5764 5762 5759 5757 5755 5753 5752 5749 5746 5746 5745 5740 5735 5733 5737 5743 5745 5746 5745 5745 5744 5744 5743 5742 5741
5796 5795 5792 5790 5788 5786 5784 5781 5777 5772 5769 5769 5769 5769 5769 5768 5766 5765 5763 5761 5758 5757 5755 5754 5752 5749 5747 5744 5743 5743 5741 5738 5734 5734 5739 5741 5742 5742 5742 5742 5741 5740 5739
5800 5797 5794 5792 5789 5787 5785 5782 5778 5774 5772 5770 5769 5768 5768 5767 5766 5764 5762 5760 5758 5756 5755 5753 5752 5750 5748 5745 5743 5741 5740 5738 5736 5732 5731 5735 5737 5739 5739 5739 5738 5738 5737
5802 5799 5796 5792 5790 5788 5786 5783 5779 5776 5772 5770 5768 5766 5766 5765 5764 5762 5761 5759 5757 5755 5754 5753 5752 5750 5748 5746 5744 5742 5739 5736 5734 5731 5729 5730 5731 5735 5737 5737 5736 5736 5735